SCP
0 -0 -0 -0 -0 -0 -0 -0 0 0 0 0 0 0 0 0 0 0 0 0 0 0 0 0 0 0 0 0 0 0 0 0 0 0 0 0 0 0 0 0 0 0 0
0 0 -0 -0 -0 -0 -0 -0 -0 0 0 0 0 0 0 0 0 0 0 0 0 0 0 0 0 0 0 0 0 0 0 0 0 0 0 0 0 0 0 0 0 0 0
0 0 0 -0 -0 -0 -0 -0 -0 0 0 0 0 0 0 0 0 0 0 0 0 0 0 0 0 0 0 0 0 0 0 0 0 0 0 0 0 0 0 0 0 0 0
-0 0 0 -0 -0 -0 -0 -0 -0 0 0 0 0 0 0 0 0 0 0 0 0 0 0 0 0 0 0 0 0 0 0 0 0 0 0 -0 0 0 0 0 0 0 0
0 0 0 -0 -0 -0 -0 -0 -0 -0 0 0 0 0 0 0 0 0 0 0 0 0 0 0 0 0 0 0 0 0 0 0 0 0 0 0 0 0 0 0 0 0 0
-0 -0 -0 -0 -0 -0 0 0 0 0 0 0 0 0 0 0 0 0 0 0 0 0 0 0 0 0 0 0 0 0 0 0 0 0 0 0 0 0 0 0 0 0 0
-0 0 0 0 0 0 0 0 0 0 0 0 0 0 0 0 0 0 0 0 0 0 0 0 0 0 0 0 0 0 0 0 0 0 0 0 0 0 0 0 0 0 0
0 0 0 0 0 0 0 0 0 0 0 0 0 0 0 0 0 0 0 0 0 0 0 0 0 0 0 0 0 0 0 0 0 0 0 0 0 0 0 0 0 0 0
0 0 0 0 0 0 0 0 0 0 0 0 0 0 0 0 0 0 0 0 0 0 0 0 0 0 0 0 0 0 0 0 0 0 0 0 0 0 0 0 0 0 0
0 0 0 0 0 0 0 0 0 0 0 0 0 0 0 0 0 0 0 0 0 0 0 0 0 0 0 0 0 0 0 0 0 0 0 0 0 0 0 0 0 0 0
0 0 0 0 0 0 0 0 0 0 0 0 0 0 0 0 0 0 0 0 0 0 0 0 0 0 0 0 0 0 0 0 0 0 0 0 0 0 0 0 0 0 0
0 0 0 0 0 0 0 0 0 0 0 0 0 0 0 0 0 0 0 0 0 0 0 0 0 0 0 0 0 0 0 0 0 0 0 0 0 0 0 0 0 0 0
0 0 0 0 0 0 0 0 0 0 0 0 0 0 0 0 0 0 0 0 0 0 0 0 0 0 0 0 0 0 0 0 0 0 0 0 0 0 0 0 0 0 0
0 0 0 0 0 0 0 0 0 0 0 0 0 0 0 0 0 0 0 0 0 0 0 0 1 0 0 0 0 0 0 0 0 0 0 0 0 0 0 0 0 0 0
0 0 0 0 0 0 0 0 0 0 0 0 0 0 0 0 0 0 0 0 0 0 0 0 0 0 0 0 0 0 0 0 0 0 0 0 0 0 0 0 0 0 0
0 0 0 0 0 0 0 0 0 0 0 0 0 0 0 0 0 0 0 0 0 0 0 0 0 0 0 0 0 0 0 0 0 0 0 0 0 0 0 0 0 0 0
0 0 0 0 0 0 0 0 0 0 0 0 0 0 0 0 0 0 0 0 0 0 0 0 0 0 0 0 0 0 0 0 0 0 0 0 0 0 0 0 0 0 0
0 0 0 0 0 0 0 0 0 0 0 0 0 0 0 0 0 0 0 0 0 0 0 0 0 0 0 0 0 0 0 0 0 0 0 0 0 0 0 0 0 0 0
0 0 0 0 0 0 0 0 0 0 0 0 0 0 0 0 0 -0 0 0 0 0 0 0 0 0 0 0 0 0 0 0 0 0 0 0 0 0 0 0 0 0 0
0 0 0 0 0 0 0 0 0 0 0 0 0 0 0 0 0 0 0 0 0 0 0 0 0 0 0 0 0 0 0 0 0 0 0 0 0 0 0 0 0 0 0
0 0 0 0 0 0 0 0 0 0 0 0 0 0 0 0 0 -0 -0 0 0 0 0 0 0 0 0 0 0 0 0 0 0 0 0 0 0 0 0 0 0 0 0
0 0 0 0 0 0 0 0 0 0 0 0 0 0 0 0 0 0 -0 -0 -0 0 0 0 0 0 0 -0 -0 -0 -0 0 0 0 0 0 0 0 0 0 0 0 0
0 0 0 0 0 0 -0 0 0 0 0 0 0 0 0 0 0 0 0 0 -0 0 0 0 0 0 0 0 0 0 -0 0 0 0 0 0 0 0 0 0 0 0 0
0 0 0 0 -0 -0 -0 0 0 0 0 0 0 0 0 0 0 0 0 -0 -0 0 0 0 0 0 0 0 0 0 0 0 0 0 0 0 0 0 0 0 0 0 0
0 0 -0 -0 -0 -0 -0 -0 0 0 0 0 0 0 0 0 0 0 0 0 0 0 0 0 0 0 0 0 0 0 0 0 0 0 0 0 0 0 0 0 0 0 0
0 0 -0 -0 -0 -0 -0 -0 -0 0 0 0 0 0 0 0 0 0 0 0 0 0 0 0 0 0 0 0 0 0 0 0 0 0 0 0 0 0 0 0 0 0 0
Wind_Speed_500mb
45 39 26 28 22 19 20 20 18 21 20 21 23 23 20 18 16 15 12 10 8 7 13 13 13 15 16 16 18 16 21 22 19 11 5 9 9 16 21 20 15 13 8
38 38 35 31 31 27 25 26 29 23 25 22 26 25 24 23 21 19 18 14 11 10 10 19 16 15 23 21 20 16 16 20 12 7 7 7 10 17 15 10 11 15 12
35 37 38 38 37 34 32 33 32 32 30 28 26 29 27 27 27 26 24 23 18 15 12 14 22 19 19 22 18 22 22 24 19 10 4 5 6 13 17 15 17 17 12
37 39 41 40 40 39 36 35 35 35 34 35 35 28 32 31 30 30 31 31 28 23 19 19 23 29 29 33 33 29 32 30 27 21 9 6 11 15 16 18 19 15 11
35 39 41 42 44 45 43 42 41 39 39 40 40 39 33 36 37 36 35 33 35 32 28 25 26 30 37 37 37 40 34 35 35 27 17 14 21 25 20 17 20 20 15
36 40 43 45 46 49 51 50 47 44 43 43 45 47 47 41 40 42 39 38 38 40 38 35 30 32 34 39 39 41 43 36 35 28 26 26 28 26 22 22 21 24 21
40 44 46 49 51 51 51 51 52 51 48 45 46 49 52 54 49 45 46 45 45 45 46 45 41 36 34 36 37 36 38 34 31 29 20 25 28 35 25 23 24 25 25
41 48 52 51 49 47 47 50 52 53 53 51 49 49 53 58 60 58 52 52 52 50 49 50 48 43 37 36 38 35 37 36 32 29 23 26 33 30 27 26 27 29 28
44 53 58 61 62 59 53 48 50 51 52 51 50 51 53 57 61 63 63 60 57 60 58 53 54 49 41 38 40 40 38 39 37 34 33 39 41 35 32 31 28 31 32
44 53 58 60 60 57 53 52 52 51 53 56 54 52 53 57 58 61 68 67 62 60 63 60 59 58 48 39 38 40 40 41 41 38 36 37 37 35 32 33 32 31 33
50 54 57 57 55 51 49 48 48 47 47 50 53 55 56 54 56 56 62 70 66 59 61 60 58 66 56 34 37 36 42 44 42 41 42 41 39 41 37 35 36 33 33
56 55 56 58 55 50 49 51 50 51 49 50 52 54 54 53 56 60 59 59 59 61 51 55 54 61 46 37 44 41 46 45 43 41 37 40 41 41 39 40 39 38 35
53 55 59 55 46 45 49 50 53 52 51 51 50 53 56 58 54 55 56 58 58 58 54 54 54 60 49 44 44 40 33 41 42 43 41 41 42 44 42 42 42 40 37
53 53 51 47 44 47 50 53 57 56 56 60 60 57 51 50 52 47 49 49 58 58 50 60 61 67 66 57 47 38 35 31 35 41 43 43 44 47 45 45 44 43 38
50 51 47 44 46 52 52 52 51 47 52 60 59 55 51 53 56 51 50 50 48 56 66 43 47 61 62 60 53 43 42 41 39 37 44 43 44 47 46 48 47 45 41
46 45 43 43 43 49 49 47 43 44 46 56 60 55 52 51 52 52 46 43 42 54 57 60 55 59 67 63 53 49 51 53 52 52 49 50 51 52 49 49 50 49 45
42 40 44 45 48 44 45 40 42 44 49 52 57 62 59 53 48 44 43 43 35 36 43 45 44 59 56 53 53 56 55 54 52 54 55 53 57 58 56 50 53 53 52
35 39 48 43 48 46 36 38 46 47 47 50 53 56 57 55 48 40 40 36 34 31 38 28 45 57 53 54 50 53 54 53 55 54 55 57 57 60 60 59 53 56 56
34 38 42 46 53 48 41 46 44 37 50 52 54 53 57 58 49 35 33 28 23 22 30 29 33 33 44 55 64 65 47 48 56 59 57 53 55 59 61 62 60 55 56
33 39 42 49 53 51 50 48 51 52 48 56 55 56 52 46 43 40 30 25 23 28 22 23 40 41 46 56 66 74 80 62 55 55 57 55 58 58 62 66 64 61 56
31 37 47 55 60 60 57 55 53 57 62 65 58 55 49 53 37 38 37 35 25 17 17 16 27 43 38 36 56 71 71 74 72 51 61 58 65 67 65 65 64 62 63
30 38 42 53 58 62 66 62 60 60 66 67 67 61 62 59 51 42 44 42 36 21 23 23 21 23 26 28 34 38 30 25 28 19 61 55 63 59 59 64 67 67 67
30 40 44 46 50 55 55 56 59 60 56 56 69 74 77 74 73 61 52 43 38 38 38 36 31 24 16 8 11 18 16 22 60 66 48 41 69 69 70 77 70 74 71
29 34 40 46 50 50 54 59 64 65 65 64 65 67 67 70 72 69 66 64 61 54 49 45 36 30 23 26 13 10 14 21 24 31 32 45 61 60 70 76 77 76 76
24 28 32 35 39 42 46 48 53 56 57 57 60 60 62 63 63 61 60 59 56 54 53 53 48 49 48 46 44 41 33 18 16 15 19 24 39 51 69 73 75 68 68
23 28 30 32 34 35 37 40 43 45 47 48 52 57 60 61 63 63 61 61 59 57 53 49 44 43 42 40 39 38 39 41 43 39 40 42 34 29 35 43 45 52 61
Wind_Direction_500mb
349 347 345 351 352 341 324 330 321 317 315 311 306 309 306 298 289 287 288 305 313 274 257 229 239 254 235 216 209 191 198 205 205 213 227 200 172 134 127 114 111 143 134
347 350 346 346 341 332 332 323 317 312 306 302 299 298 295 289 285 276 272 281 295 291 264 228 244 254 204 212 219 201 187 186 199 223 227 205 189 145 130 136 154 163 156
352 354 350 345 339 332 323 315 312 308 302 292 289 288 281 276 276 278 269 267 275 279 264 242 243 246 227 214 228 234 233 233 227 219 208 190 222 184 162 179 192 176 166
350 349 346 343 337 332 325 315 307 304 295 288 284 277 277 276 269 268 273 265 263 265 259 253 244 244 243 245 247 253 247 244 239 231 228 139 260 258 241 189 193 186 174
351 349 346 340 335 330 325 320 314 304 295 284 278 272 269 272 272 268 263 265 262 260 253 254 258 251 246 249 248 247 248 250 242 239 214 185 210 261 250 219 201 188 183
348 344 340 337 332 328 323 318 313 309 302 291 279 269 267 261 265 266 266 262 261 257 252 254 256 258 252 251 247 245 247 251 233 227 207 219 200 238 247 226 216 199 198
343 336 336 333 331 327 321 316 313 309 303 298 287 276 269 266 263 261 264 265 263 257 254 251 254 256 259 249 247 243 231 238 224 215 207 240 230 237 246 234 222 216 221
336 335 336 333 331 327 322 317 311 306 303 298 293 281 273 265 263 265 262 261 261 259 253 254 254 255 258 251 242 237 231 232 226 212 197 232 248 244 247 240 231 224 224
334 335 336 333 334 333 330 324 314 308 301 296 289 285 278 270 264 259 259 261 260 261 254 252 250 252 257 253 243 238 234 229 226 218 208 226 240 247 250 247 237 231 230
337 336 333 333 332 329 328 326 323 318 308 302 295 285 278 274 270 268 260 258 261 262 261 254 245 243 246 250 246 241 237 231 229 226 224 233 240 247 249 247 246 238 234
342 340 335 332 329 327 328 329 327 324 319 311 301 293 285 278 272 265 264 257 257 260 261 255 240 237 235 238 247 242 240 236 236 235 233 238 245 246 251 248 249 245 238
342 338 332 332 334 334 336 335 335 333 328 322 318 311 299 282 272 266 258 261 249 252 257 250 239 228 223 221 239 245 240 236 239 242 240 240 250 252 251 249 247 249 242
338 337 338 342 344 346 344 344 342 335 331 326 319 313 308 300 285 275 266 255 256 247 250 244 239 228 216 226 237 243 248 241 240 243 241 245 250 255 255 250 247 245 245
340 341 346 350 353 350 348 348 345 342 342 344 338 330 322 309 304 288 277 267 249 252 250 247 237 239 241 230 230 241 256 255 244 242 245 251 250 258 258 253 248 244 239
343 344 348 353 357 356 352 346 339 343 342 348 344 339 330 318 307 298 277 271 251 245 251 259 235 244 237 233 233 238 231 251 259 246 248 253 252 260 260 252 248 245 237
344 350 356 357 360 357 355 354 359 4 357 352 350 344 334 322 312 307 296 280 277 247 247 265 239 237 246 239 237 235 231 236 242 247 253 253 254 255 260 257 249 246 239
346 354 4 7 3 1 4 11 13 8 359 350 346 346 342 329 317 307 305 293 281 269 251 260 254 248 240 237 239 234 238 251 252 256 260 261 257 255 257 257 251 247 246
357 11 14 8 14 10 13 18 26 12 2 2 353 348 341 334 322 312 306 300 289 285 258 253 266 246 242 253 283 251 248 252 266 269 265 263 260 256 257 258 254 249 247
16 17 18 32 27 28 25 24 27 6 10 9 4 3 354 354 348 329 320 315 309 301 282 267 274 271 257 249 248 264 250 262 264 272 272 266 260 258 256 256 256 252 248
37 37 35 35 36 37 35 39 36 32 27 22 22 15 14 4 10 6 5 5 356 346 337 279 263 290 284 263 256 254 262 261 270 257 258 272 270 258 255 255 256 255 253
44 44 44 45 42 39 39 39 38 41 40 34 33 22 21 30 31 39 28 35 22 18 358 320 283 286 312 305 272 260 255 260 264 268 281 270 266 262 253 253 255 254 251
52 51 48 51 48 48 48 49 49 45 47 43 43 41 44 43 41 37 40 40 37 27 27 13 347 323 313 286 277 283 325 289 250 283 332 289 254 242 237 246 251 252 247
66 58 56 59 58 54 52 51 51 51 49 47 48 44 46 46 48 51 54 54 46 43 42 35 23 3 9 357 298 307 287 261 284 282 289 286 259 243 237 251 247 252 256
81 77 70 64 63 63 59 56 55 55 51 48 48 48 46 46 47 46 46 46 45 46 43 39 30 23 19 15 347 290 271 276 281 287 264 253 246 244 247 253 241 243 253
94 82 75 68 63 58 57 55 56 54 51 48 49 50 49 47 45 44 42 43 44 44 40 33 26 28 29 28 26 13 1 1 326 332 320 282 265 255 254 251 252 250 244
110 95 82 73 65 60 55 54 52 52 51 49 45 43 41 39 38 38 37 38 38 37 34 32 27 26 27 29 28 23 17 10 357 358 332 317 296 271 264 257 258 256 258
Wind_Speed_850mb
45 39 26 28 22 19 20 20 18 21 20 21 23 23 20 18 16 15 12 10 8 7 13 13 13 15 16 16 18 16 21 22 19 11 5 9 9 16 21 20 15 13 8
38 38 35 31 31 27 25 26 29 23 25 22 26 25 24 23 21 19 18 14 11 10 10 19 16 15 23 21 20 16 16 20 12 7 7 7 10 17 15 10 11 15 12
35 37 38 38 37 34 32 33 32 32 30 28 26 29 27 27 27 26 24 23 18 15 12 14 22 19 19 22 18 22 22 24 19 10 4 5 6 13 17 15 17 17 12
37 39 41 40 40 39 36 35 35 35 34 35 35 28 32 31 30 30 31 31 28 23 19 19 23 29 29 33 33 29 32 30 27 21 9 6 11 15 16 18 19 15 11
35 39 41 42 44 45 43 42 41 39 39 40 40 39 33 36 37 36 35 33 35 32 28 25 26 30 37 37 37 40 34 35 35 27 17 14 21 25 20 17 20 20 15
36 40 43 45 46 49 51 50 47 44 43 43 45 47 47 41 40 42 39 38 38 40 38 35 30 32 34 39 39 41 43 36 35 28 26 26 28 26 22 22 21 24 21
40 44 46 49 51 51 51 51 52 51 48 45 46 49 52 54 49 45 46 45 45 45 46 45 41 36 34 36 37 36 38 34 31 29 20 25 28 35 25 23 24 25 25
41 48 52 51 49 47 47 50 52 53 53 51 49 49 53 58 60 58 52 52 52 50 49 50 48 43 37 36 38 35 37 36 32 29 23 26 33 30 27 26 27 29 28
44 53 58 61 62 59 53 48 50 51 52 51 50 51 53 57 61 63 63 60 57 60 58 53 54 49 41 38 40 40 38 39 37 34 33 39 41 35 32 31 28 31 32
44 53 58 60 60 57 53 52 52 51 53 56 54 52 53 57 58 61 68 67 62 60 63 60 59 58 48 39 38 40 40 41 41 38 36 37 37 35 32 33 32 31 33
50 54 57 57 55 51 49 48 48 47 47 50 53 55 56 54 56 56 62 70 66 59 61 60 58 66 56 34 37 36 42 44 42 41 42 41 39 41 37 35 36 33 33
56 55 56 58 55 50 49 51 50 51 49 50 52 54 54 53 56 60 59 59 59 61 51 55 54 61 46 37 44 41 46 45 43 41 37 40 41 41 39 40 39 38 35
53 55 59 55 46 45 49 50 53 52 51 51 50 53 56 58 54 55 56 58 58 58 54 54 54 60 49 44 44 40 33 41 42 43 41 41 42 44 42 42 42 40 37
53 53 51 47 44 47 50 53 57 56 56 60 60 57 51 50 52 47 49 49 58 58 50 60 61 67 66 57 47 38 35 31 35 41 43 43 44 47 45 45 44 43 38
50 51 47 44 46 52 52 52 51 47 52 60 59 55 51 53 56 51 50 50 48 56 66 43 47 61 62 60 53 43 42 41 39 37 44 43 44 47 46 48 47 45 41
46 45 43 43 43 49 49 47 43 44 46 56 60 55 52 51 52 52 46 43 42 54 57 60 55 59 67 63 53 49 51 53 52 52 49 50 51 52 49 49 50 49 45
42 40 44 45 48 44 45 40 42 44 49 52 57 62 59 53 48 44 43 43 35 36 43 45 44 59 56 53 53 56 55 54 52 54 55 53 57 58 56 50 53 53 52
35 39 48 43 48 46 36 38 46 47 47 50 53 56 57 55 48 40 40 36 34 31 38 28 45 57 53 54 50 53 54 53 55 54 55 57 57 60 60 59 53 56 56
34 38 42 46 53 48 41 46 44 37 50 52 54 53 57 58 49 35 33 28 23 22 30 29 33 33 44 55 64 65 47 48 56 59 57 53 55 59 61 62 60 55 56
33 39 42 49 53 51 50 48 51 52 48 56 55 56 52 46 43 40 30 25 23 28 22 23 40 41 46 56 66 74 80 62 55 55 57 55 58 58 62 66 64 61 56
31 37 47 55 60 60 57 55 53 57 62 65 58 55 49 53 37 38 37 35 25 17 17 16 27 43 38 36 56 71 71 74 72 51 61 58 65 67 65 65 64 62 63
30 38 42 53 58 62 66 62 60 60 66 67 67 61 62 59 51 42 44 42 36 21 23 23 21 23 26 28 34 38 30 25 28 19 61 55 63 59 59 64 67 67 67
30 40 44 46 50 55 55 56 59 60 56 56 69 74 77 74 73 61 52 43 38 38 38 36 31 24 16 8 11 18 16 22 60 66 48 41 69 69 70 77 70 74 71
29 34 40 46 50 50 54 59 64 65 65 64 65 67 67 70 72 69 66 64 61 54 49 45 36 30 23 26 13 10 14 21 24 31 32 45 61 60 70 76 77 76 76
24 28 32 35 39 42 46 48 53 56 57 57 60 60 62 63 63 61 60 59 56 54 53 53 48 49 48 46 44 41 33 18 16 15 19 24 39 51 69 73 75 68 68
23 28 30 32 34 35 37 40 43 45 47 48 52 57 60 61 63 63 61 61 59 57 53 49 44 43 42 40 39 38 39 41 43 39 40 42 34 29 35 43 45 52 61
Wind_Direction_850mb
349 347 345 351 352 341 324 330 321 317 315 311 306 309 306 298 289 287 288 305 313 274 257 229 239 254 235 216 209 191 198 205 205 213 227 200 172 134 127 114 111 143 134
347 350 346 346 341 332 332 323 317 312 306 302 299 298 295 289 285 276 272 281 295 291 264 228 244 254 204 212 219 201 187 186 199 223 227 205 189 145 130 136 154 163 156
352 354 350 345 339 332 323 315 312 308 302 292 289 288 281 276 276 278 269 267 275 279 264 242 243 246 227 214 228 234 233 233 227 219 208 190 222 184 162 179 192 176 166
350 349 346 343 337 332 325 315 307 304 295 288 284 277 277 276 269 268 273 265 263 265 259 253 244 244 243 245 247 253 247 244 239 231 228 139 260 258 241 189 193 186 174
351 349 346 340 335 330 325 320 314 304 295 284 278 272 269 272 272 268 263 265 262 260 253 254 258 251 246 249 248 247 248 250 242 239 214 185 210 261 250 219 201 188 183
348 344 340 337 332 328 323 318 313 309 302 291 279 269 267 261 265 266 266 262 261 257 252 254 256 258 252 251 247 245 247 251 233 227 207 219 200 238 247 226 216 199 198
343 336 336 333 331 327 321 316 313 309 303 298 287 276 269 266 263 261 264 265 263 257 254 251 254 256 259 249 247 243 231 238 224 215 207 240 230 237 246 234 222 216 221
336 335 336 333 331 327 322 317 311 306 303 298 293 281 273 265 263 265 262 261 261 259 253 254 254 255 258 251 242 237 231 232 226 212 197 232 248 244 247 240 231 224 224
334 335 336 333 334 333 330 324 314 308 301 296 289 285 278 270 264 259 259 261 260 261 254 252 250 252 257 253 243 238 234 229 226 218 208 226 240 247 250 247 237 231 230
337 336 333 333 332 329 328 326 323 318 308 302 295 285 278 274 270 268 260 258 261 262 261 254 245 243 246 250 246 241 237 231 229 226 224 233 240 247 249 247 246 238 234
342 340 335 332 329 327 328 329 327 324 319 311 301 293 285 278 272 265 264 257 257 260 261 255 240 237 235 238 247 242 240 236 236 235 233 238 245 246 251 248 249 245 238
342 338 332 332 334 334 336 335 335 333 328 322 318 311 299 282 272 266 258 261 249 252 257 250 239 228 223 221 239 245 240 236 239 242 240 240 250 252 251 249 247 249 242
338 337 338 342 344 346 344 344 342 335 331 326 319 313 308 300 285 275 266 255 256 247 250 244 239 228 216 226 237 243 248 241 240 243 241 245 250 255 255 250 247 245 245
340 341 346 350 353 350 348 348 345 342 342 344 338 330 322 309 304 288 277 267 249 252 250 247 237 239 241 230 230 241 256 255 244 242 245 251 250 258 258 253 248 244 239
343 344 348 353 357 356 352 346 339 343 342 348 344 339 330 318 307 298 277 271 251 245 251 259 235 244 237 233 233 238 231 251 259 246 248 253 252 260 260 252 248 245 237
344 350 356 357 360 357 355 354 359 4 357 352 350 344 334 322 312 307 296 280 277 247 247 265 239 237 246 239 237 235 231 236 242 247 253 253 254 255 260 257 249 246 239
346 354 4 7 3 1 4 11 13 8 359 350 346 346 342 329 317 307 305 293 281 269 251 260 254 248 240 237 239 234 238 251 252 256 260 261 257 255 257 257 251 247 246
357 11 14 8 14 10 13 18 26 12 2 2 353 348 341 334 322 312 306 300 289 285 258 253 266 246 242 253 283 251 248 252 266 269 265 263 260 256 257 258 254 249 247
16 17 18 32 27 28 25 24 27 6 10 9 4 3 354 354 348 329 320 315 309 301 282 267 274 271 257 249 248 264 250 262 264 272 272 266 260 258 256 256 256 252 248
37 37 35 35 36 37 35 39 36 32 27 22 22 15 14 4 10 6 5 5 356 346 337 279 263 290 284 263 256 254 262 261 270 257 258 272 270 258 255 255 256 255 253
44 44 44 45 42 39 39 39 38 41 40 34 33 22 21 30 31 39 28 35 22 18 358 320 283 286 312 305 272 260 255 260 264 268 281 270 266 262 253 253 255 254 251
52 51 48 51 48 48 48 49 49 45 47 43 43 41 44 43 41 37 40 40 37 27 27 13 347 323 313 286 277 283 325 289 250 283 332 289 254 242 237 246 251 252 247
66 58 56 59 58 54 52 51 51 51 49 47 48 44 46 46 48 51 54 54 46 43 42 35 23 3 9 357 298 307 287 261 284 282 289 286 259 243 237 251 247 252 256
81 77 70 64 63 63 59 56 55 55 51 48 48 48 46 46 47 46 46 46 45 46 43 39 30 23 19 15 347 290 271 276 281 287 264 253 246 244 247 253 241 243 253
94 82 75 68 63 58 57 55 56 54 51 48 49 50 49 47 45 44 42 43 44 44 40 33 26 28 29 28 26 13 1 1 326 332 320 282 265 255 254 251 252 250 244
110 95 82 73 65 60 55 54 52 52 51 49 45 43 41 39 38 38 37 38 38 37 34 32 27 26 27 29 28 23 17 10 357 358 332 317 296 271 264 257 258 256 258